Flag for U.S.A. Weather past 2 weeks in Plano, Texas, U.S.A.

Now
71 °F

Mostly cloudy.


Feels Like: 69 °F
Forecast: 67 / 79 °F
Wind: 9 mph from Northeast

Location: McKinney Municipal Airport

Current Time: Aug 1, 2014 at 11:29:19 AM

Latest Report: Aug 1, 2014 at 11:00 AM


Visibility: 10 mi

Pressure: 30.07 "Hg

Humidity: 87%

Dew point: 67 °F

Location of PlanoLocation

Historic Weather in Plano — Graph

°F

Plano temperature yesterday

Maximum temperature yesterday: 79 °F (at 12:00 PM)
Minimum temperature yesterday: 69 °F (at 8:53 PM)
Average temperature yesterday: 73 °F

Past Weeks' High & Low Weather Summary

 TemperatureHumidityPressure
High101 °F (Jul 27, 4:53 PM)100% (Jul 24, 7:53 AM)30.15 "Hg (Jul 24, 7:53 AM)
Low63 °F (Jul 18, 5:53 AM)32% (Jul 27, 3:53 PM)29.88 "Hg (Jul 25, 6:53 PM)
Average78 °F74%30.01 "Hg
* Reported Jul 17 9:53 AM — Aug 1 9:53 AM, Plano, Weather by CustomWeather, © 2014

Note: Actual official high and low records may vary slightly from our data, if they occured in-between our weather recording intervals... More about our weather records

Advertising

Plano weather history for previous 24 hours

 ConditionsComfort  
Time TempWeatherWind HumidityBarometerVisibility
9:53 AM
Aug 1
69 °FLow clouds.9 mph93%30.06 "Hg10 mi
8:53 AM69 °FLight rain. Fog.8 mph93%30.05 "Hg3 mi
7:53 AM68 °FFog.8 mph96%30.04 "Hg5 mi
6:55 AM68 °FLight rain. Fog.8 mph96%30.03 "Hg3 mi
5:53 AM68 °FLight rain. Fog.7 mph96%30.01 "Hg3 mi
5:03 AM68 °FLight rain. Fog.6 mph96%30.01 "Hg4 mi
4:53 AM68 °FLight rain. Fog.5 mph96%30.01 "Hg3 mi
3:53 AM69 °FLow clouds.7 mph93%30.01 "Hg10 mi
2:53 AM69 °FLow clouds.6 mph93%30.01 "Hg10 mi
1:53 AM68 °FFog.7 mph96%30.02 "Hg5 mi
12:53 AM68 °FLight rain. Fog.6 mph96%30.03 "Hg3 mi
11:53 PM
Jul 31
70 °FOvercast.7 mph87%30.04 "Hg10 mi
10:53 PM70 °FOvercast.10 mph87%30.02 "Hg10 mi
9:53 PM70 °FOvercast.10 mph87%30.00 "Hg10 mi
8:53 PM69 °FLow clouds.12 mph90%29.99 "Hg10 mi
7:53 PM70 °FLow clouds.13 mph87%29.99 "Hg10 mi
6:53 PM71 °FOvercast.14 mph84%29.99 "Hg10 mi
5:53 PM72 °FOvercast.14 mph84%29.99 "Hg10 mi
4:53 PM73 °FOvercast.13 mph84%29.98 "Hg10 mi
3:53 PM75 °FOvercast.16 mph82%29.97 "Hg10 mi
2:53 PM76 °FOvercast.16 mph80%29.97 "Hg10 mi
1:53 PM75 °FMostly cloudy.14 mph82%29.97 "Hg10 mi
1:00 PM75 °FMostly cloudy.15 mph85%29.98 "Hg10 mi
12:00 PM79 °FMore clouds than sun.5 mph82%29.97 "Hg10 mi
11:53 AM78 °FPartly sunny.6 mph84%29.96 "Hg10 mi
Weather by CustomWeather, © 2014

See weather overviewHow to use our weather pages